Location: *
(45.4590°N, 16.3650°E)
Time: 19:42:52
(UTC+00:00)

Cosmos 2333 Rocket - Pass Details

Date: 17 January 2020
Orbit: 838 x 863 km, 70.8° (Epoch: 21 February)

Event Time Altitude Azimuth Distance (km) Brightness Sun altitude
Rises 16:50:56 0° 334° (NNW) 3,443 5.5 -12.3°
Reaches altitude 10° 16:53:25 10° 336° (NNW) 2,500 4.8 -12.7°
Maximum altitude 16:59:10 79° 63° (ENE) 873 2.1 -13.7°
Drops below altitude 10° 17:04:51 10° 151° (SSE) 2,467 4.5 -14.7°
Sets 17:07:17 0° 152° (SSE) 3,395 5.2 -15.1°
